Simultaneous Nadir Overpasses (SNOs) Predictions

Prediction of SNOs between GOES-16 and METOP-B Satellite Orbit:

Table of predicted SNOs for the next 14.0 days since TLE Epoch: 7/9/2022
Index Date Time (GOES-16) GOES-16 Lat,Lon METOP-B Lat,Lon Distance(km) Time Diff (sec)
1 07/09/2022 14:38:17 0.01, -75.21 0.47, -77.32 240.15 80
2 07/10/2022 14:20:18 0.01, -75.21 -0.64, -72.33 329.41 80
3 07/12/2022 02:39:18 -0.02, -75.20 -0.38, -76.92 195.29 80
4 07/13/2022 02:15:58 -0.02, -75.21 0.68, -71.92 374.22 80
5 07/14/2022 14:34:50 0.02, -75.23 0.29, -76.49 143.51 80
6 07/15/2022 14:14:10 0.01, -75.23 -0.82, -71.49 426.28 80
7 07/17/2022 02:35:51 -0.00, -75.24 -0.19, -76.09 97.34 80
8 07/18/2022 02:12:31 0.01, -75.25 0.93, -71.10 472.86 80
9 07/19/2022 14:31:23 -0.02, -75.29 0.04, -75.67 43.24 80
10 07/22/2022 02:29:43 -0.01, -75.32 0.02, -75.26 7.09 80
